Simultaneous Nadir Overpasses (SNOs) Predictions

Prediction of SNOs between AQUA and METOP-B Satellite Orbit:

Table of predicted SNOs for the next 14.0 days since TLE Epoch: 9/13/2019
Index Date (AQUA) Time (AQUA) Lat,Lon (AQUA) SZA (AQUA ) Date (METOP-B) Time (METOP-B) Lat,Lon (METOP-B) SZA (METOP-B ) Distance(km) Time Diff (sec)
1 09/15/2019 04:29:22 -73.82, -73.11 109.37 09/15/2019 04:28:52 -73.82, -73.20 109.36 2.73 30
2 09/15/2019 05:18:52 73.92, 94.29 70.76 09/15/2019 05:19:30 73.90, 94.31 70.73 2.92 38
3 09/18/2019 00:03:39 -73.84, -6.74 108.26 09/18/2019 00:03:13 -73.86, -6.70 108.24 2.26 26
4 09/18/2019 00:53:08 73.90, 160.77 71.82 09/18/2019 00:53:51 73.93, 160.80 71.84 3.41 43
5 09/20/2019 19:37:55 -73.87, 59.63 107.15 09/20/2019 19:37:34 -73.85, 59.68 107.17 2.87 21
6 09/20/2019 20:27:24 73.94,-132.88 72.94 09/20/2019 20:28:12 73.91,-132.83 72.91 3.05 48
7 09/23/2019 14:22:33 73.20, -40.15 73.24 09/23/2019 14:21:27 73.17, -42.80 73.27 85.33 66
8 09/23/2019 15:12:11 -73.85, 126.11 106.08 09/23/2019 15:11:56 -73.83, 126.05 106.09 2.79 15
9 09/23/2019 16:01:40 73.93, -66.42 74.02 09/23/2019 16:02:33 73.94, -66.35 74.03 2.95 53
10 09/26/2019 09:56:53 73.40, 25.86 74.54 09/26/2019 09:55:44 73.40, 24.12 74.57 55.39 69
11 09/26/2019 10:46:27 -73.84,-167.43 105.00 09/26/2019 10:46:17 -73.87,-167.46 104.97 3.28 10
12 09/26/2019 11:35:56 73.92, 0.03 75.10 09/26/2019 11:36:55 73.92, 0.01 75.10 0.62 59




NCC Satellite Simultaneous Nadir Overpasses (SNOs) Prediction Service
